Location: Essen
(51.4609°N, 7.0127°E)
Time: 19:41:51
(UTC+02:00)

Tiangong 2 - Visible Passes

Search period start: 20 May 2018 00:00
Search period end: 30 May 2018 00:00
Orbit: 382 x 386 km, 42.8° (Epoch: 20 May)

Date Brightness Start Highest point End Pass type
(mag) Time Alt. Az. Time Alt. Az. Time Alt. Az.
23 May 3.0 22:35:18 10° SSW 22:36:56 13° SSE 22:37:43 13° SSE visible
24 May 2.8 23:11:12 10° SW 23:13:16 17° S 23:13:16 17° S visible
25 May 3.3 23:47:49 10° SW 23:48:33 13° SW 23:48:33 13° SW visible
26 May 2.8 22:48:05 10° SW 22:50:14 17° S 22:51:27 14° SSE visible
27 May 3.2 23:25:00 10° SW 23:26:28 13° SSW 23:26:28 13° SSW visible
28 May 3.0 22:25:03 10° SW 22:27:04 16° S 22:29:04 10° SSE visible
29 May 3.4 23:02:41 10° SSW 23:03:24 11° SSW 23:04:08 10° S visible
